EW5058 Weather Reports


Display with metric or nautical units.
time (UTC)temp
F
wind
direction
speed
MPH
gust
MPH
rain 1hr
in
rain 24hr
in
rain mn
in
humidity
%
barometer
mb
20260901023839 75 0.0 0.0 0.00 0.01 0.01 92 1017.5
20260901022819 75 0.0 0.0 0.00 0.01 0.01 92 1017.6
20260901021819 76 0.0 0.0 0.00 0.01 0.01 92 1017.7
20260901020819 76 0.0 0.0 0.00 0.01 0.01 91 1017.9
20260901015839 76 0.0 0.0 0.00 0.01 0.01 91 1017.8
20260901014839 76 0.0 0.0 0.00 0.01 0.01 91 1017.9
20260901013819 76 0.0 1.0 0.00 0.01 0.01 91 1017.8
20260901012819 76 0.0 0.0 0.00 0.01 0.01 90 1017.8
20260901011819 76 0.0 1.0 0.00 0.01 0.01 90 1017.8
20260901010859 76 0.0 1.0 0.00 0.01 0.01 90 1017.7
20260901005819 77 0.0 0.0 0.00 0.01 0.01 90 1017.8
20260901004819 77 0.0 0.0 0.00 0.01 0.01 90 1017.7
20260901003819 77 0.0 0.0 0.00 0.01 0.01 90 1017.8
20260901002819 77 0.0 1.0 0.00 0.01 0.01 90 1017.7
20260901001819 77 0.0 1.0 0.00 0.01 0.01 89 1017.6
20260901000819 77 0.0 1.0 0.00 0.01 0.01 89 1017.5
20260831235819 78 0.0 1.0 0.00 0.01 0.01 88 1017.5
20260831234819 78 158 2.0 7.0 0.00 0.01 0.01 88 1017.6
20260831233819 78 0.0 2.0 0.00 0.01 0.01 87 1017.7
20260831232819 79 135 1.0 2.0 0.00 0.01 0.01 86 1017.9
20260831231819 79 0.0 1.0 0.00 0.01 0.01 86 1017.9
20260831230819 80 45 2.0 4.0 0.00 0.01 0.01 85 1018.0
20260831225839 81 0.0 1.0 0.00 0.01 0.01 84 1017.9
20260831224819 82 0.0 1.0 0.00 0.01 0.01 83 1017.9
20260831223819 84 0.0 0.0 0.00 0.01 0.01 84 1017.9
20260831222819 84 0.0 0.0 0.00 0.01 0.01 84 1017.7
20260831221819 84 0.0 0.0 0.00 0.01 0.01 83 1017.8
20260831220859 84 338 1.0 2.0 0.00 0.01 0.01 82 1018.0
20260831215819 85 338 2.0 3.0 0.00 0.01 0.01 82 1018.0
20260831214818 85 338 3.0 4.0 0.00 0.01 0.01 82 1018.0
20260831213819 85 315 2.0 3.0 0.00 0.01 0.01 82 1018.0
20260831212839 85 338 2.0 3.0 0.00 0.01 0.01 82 1018.0
20260831211839 85 338 2.0 3.0 0.00 0.01 0.01 82 1017.8
20260831210818 86 338 5.0 6.0 0.00 0.01 0.01 80 1017.8
20260831205819 86 315 3.0 4.0 0.00 0.01 0.01 80 1017.7
20260831204819 86 315 3.0 4.0 0.00 0.01 0.01 79 1017.6
20260831203838 86 338 5.0 8.0 0.00 0.01 0.01 80 1017.5
20260831202818 87 338 6.0 9.0 0.00 0.01 0.01 78 1017.5
20260831201819 87 315 4.0 6.0 0.00 0.01 0.01 80 1017.6
20260831200818 87 315 4.0 6.0 0.00 0.01 0.01 79 1017.6
20260831195859 87 338 5.0 8.0 0.00 0.01 0.01 79 1017.7
20260831194818 89 315 4.0 6.0 0.00 0.01 0.01 76 1017.8
20260831193818 90 338 5.0 6.0 0.00 0.01 0.01 74 1017.8
20260831192818 91 315 5.0 8.0 0.00 0.01 0.01 74 1017.9
20260831191819 91 0.0 0.0 0.00 0.01 0.01 74 1018.0
20260831190818 92 315 2.0 2.0 0.00 0.01 0.01 74 1018.1
20260831185840 92 315 3.0 4.0 0.00 0.01 0.01 72 1018.2
20260831184818 93 315 2.0 4.0 0.00 0.01 0.01 72 1018.2
20260831183818 94 315 3.0 8.0 0.00 0.01 0.01 73 1018.1
20260831182818 92 315 4.0 6.0 0.00 0.01 0.01 73 1018.3
20260831181838 92 338 2.0 3.0 0.00 0.01 0.01 75 1018.3
20260831180820 90 315 2.0 4.0 0.00 0.01 0.01 78 1018.3
20260831175840 89 338 2.0 3.0 0.00 0.01 0.01 76 1018.4
20260831174818 89 338 1.0 3.0 0.00 0.01 0.01 74 1018.4
20260831173818 89 338 1.0 2.0 0.00 0.01 0.01 75 1018.4
20260831172818 90 315 2.0 4.0 0.00 0.01 0.01 74 1018.6
20260831171818 89 338 2.0 2.0 0.00 0.01 0.01 74 1018.6
20260831170840 89 315 3.0 5.0 0.00 0.01 0.01 76 1018.6
20260831165818 87 158 1.0 2.0 0.00 0.01 0.01 76 1018.5
20260831164900 86 0.0 0.0 0.00 0.01 0.01 81 1018.6
20260831163820 86 0.0 1.0 0.00 0.01 0.01 78 1018.7
20260831162820 86 0.0 0.0 0.00 0.01 0.01 77 1018.8
20260831161820 87 45 1.0 2.0 0.00 0.01 0.01 78 1019.0
20260831160820 88 0 1.0 3.0 0.00 0.01 0.01 77 1019.0
20260831155820 88 0 1.0 2.0 0.00 0.01 0.01 77 1019.0
20260831154840 88 0 2.0 2.0 0.00 0.01 0.01 79 1019.0
20260831153820 87 315 3.0 4.0 0.00 0.01 0.01 80 1018.9
20260831152820 86 315 3.0 4.0 0.00 0.01 0.01 81 1018.9
20260831151840 86 23 4.0 7.0 0.00 0.01 0.01 82 1018.8
20260831150820 85 0 2.0 3.0 0.00 0.01 0.01 79 1018.8
20260831145820 84 338 1.0 2.0 0.00 0.01 0.01 86 1019.0
20260831144820 83 0.0 2.0 0.00 0.01 0.01 84 1019.0
20260831143820 83 45 2.0 4.0 0.00 0.01 0.01 87 1019.0
20260831142820 82 23 2.0 4.0 0.00 0.01 0.01 87 1018.9
20260831141840 82 45 2.0 4.0 0.00 0.01 0.01 91 1018.9
20260831140820 80 0.0 1.0 0.00 0.01 0.01 93 1018.9
20260831135820 79 135 2.0 2.0 0.00 0.01 0.01 95 1019.0
20260831134820 78 68 2.0 3.0 0.00 0.01 0.01 96 1019.1
20260831133839 78 0 1.0 2.0 0.00 0.01 0.01 97 1019.1
20260831132820 78 68 1.0 1.0 0.00 0.01 0.01 98 1019.1
20260831131820 78 0 1.0 3.0 0.00 0.01 0.01 99 1019.2
20260831130819 78 338 1.0 3.0 0.00 0.01 0.01 99 1019.2
20260831125839 77 90 1.0 2.0 0.00 0.01 0.01 100 1019.2
20260831124820 77 158 3.0 3.0 0.00 0.01 0.01 100 1019.1
20260831123819 76 0.0 1.0 0.00 0.01 0.01 99 1019.1
20260831122839 76 0.0 0.0 0.00 0.01 0.01 99 1019.0
20260831121839 76 180 1.0 1.0 0.00 0.01 0.01 100 1019.0
20260831120819 75 0.0 0.0 0.00 0.01 0.01 100 1018.9
20260831115820 75 0.0 0.0 0.00 0.01 0.01 99 1018.6
20260831114820 74 0.0 0.0 0.00 0.01 0.01 99 1018.6
20260831113819 73 0.0 0.0 0.00 0.01 0.01 99 1018.5
20260831112819 73 0.0 0.0 0.00 0.01 0.01 99 1018.5
20260831111820 73 0.0 0.0 0.00 0.01 0.01 99 1018.4
20260831110819 73 0.0 0.0 0.00 0.01 0.01 99 1018.4
20260831105820 72 0.0 0.0 0.00 0.01 0.01 99 1018.3
20260831104839 72 0.0 0.0 0.00 0.01 0.01 98 1018.2
20260831103819 73 0.0 1.0 0.00 0.01 0.01 98 1018.0
20260831102819 73 0.0 0.0 0.00 0.01 0.01 99 1017.9
20260831101820 73 0.0 0.0 0.00 0.01 0.01 99 1017.9
20260831100819 73 0.0 0.0 0.00 0.01 0.01 98 1017.9
20260831095819 73 0.0 0.0 0.00 0.01 0.01 98 1017.8
20260831094819 73 0.0 0.0 0.00 0.01 0.01 98 1018.0
20260831093819 74 0.0 0.0 0.00 0.01 0.01 99 1017.8
20260831092819 73 0.0 0.0 0.00 0.01 0.01 98 1017.7
20260831091839 73 0.0 0.0 0.00 0.01 0.01 98 1017.7
20260831090819 73 0.0 0.0 0.00 0.01 0.01 98 1017.7
20260831085819 74 0.0 0.0 0.00 0.01 0.01 98 1017.7
20260831084818 74 0.0 0.0 0.00 0.01 0.01 98 1017.7
20260831083819 74 0.0 0.0 0.00 0.01 0.01 98 1017.8
20260831082839 74 0.0 0.0 0.00 0.01 0.01 98 1017.8
20260831081839 74 0.0 0.0 0.00 0.01 0.01 98 1017.8
20260831080818 74 0.0 0.0 0.00 0.01 0.01 98 1017.9
20260831075819 75 0.0 0.0 0.00 0.01 0.01 98 1018.0
20260831074819 75 0.0 0.0 0.01 0.01 0.01 98 1017.9
20260831073839 75 0.0 0.0 0.01 0.01 0.01 98 1017.9
20260831072819 75 0.0 0.0 0.01 0.01 0.01 98 1017.9
20260831071818 74 0.0 0.0 0.01 0.01 0.01 98 1018.0
20260831070819 74 0.0 0.0 0.01 0.01 0.01 97 1018.0
20260831065819 75 0.0 0.0 0.01 0.01 0.01 98 1018.1
20260831064819 75 0.0 0.0 0.00 0.00 0.00 97 1018.2
20260831063818 75 0.0 0.0 0.00 0.00 0.00 97 1018.2
20260831062819 75 0.0 0.0 0.00 0.00 0.00 97 1018.2
20260831061959 75 0.0 0.0 0.00 0.00 0.00 97 1018.2
20260831060819 75 0.0 0.0 0.00 0.00 0.00 97 1018.1
20260831055818 76 0.0 0.0 0.00 0.00 0.00 97 1018.3
20260831054819 76 0.0 0.0 0.00 0.00 0.00 97 1018.1
20260831053839 76 180 1.0 2.0 0.00 0.00 0.00 97 1018.1
20260831052819 76 0.0 1.0 0.00 0.00 0.00 97 1018.1
20260831051819 76 180 2.0 3.0 0.00 0.00 0.00 97 1018.2
20260831050818 76 0.0 1.0 0.00 0.00 0.00 97 1018.3
20260831045818 76 0.0 1.0 0.00 0.00 0.00 97 1018.4
20260831044818 76 0.0 0.0 0.00 0.00 0.00 96 1018.4
20260831043818 76 0.0 0.0 0.00 0.00 0.00 96 1018.5
20260831042819 77 0.0 2.0 0.00 0.00 0.00 96 1018.4
20260831041819 77 0.0 1.0 0.00 0.00 0.00 96 1018.4
20260831040818 77 0.0 0.0 0.00 0.00 0.00 96 1018.5
20260831035820 77 0.0 0.0 0.00 0.00 0.00 96 1018.5
20260831034819 77 0.0 1.0 0.00 0.00 0.00 96 1018.6
20260831033840 77 158 1.0 3.0 0.00 0.00 0.00 96 1018.6
20260831032840 78 0.0 0.0 0.00 0.00 0.00 95 1018.6
20260831031820 78 0.0 0.0 0.00 0.00 0.00 95 1018.6
20260831030820 78 0.0 1.0 0.00 0.00 0.00 95 1018.6
20260831025820 78 0.0 2.0 0.00 0.00 0.00 95 1018.6
20260831024840 78 0.0 0.0 0.00 0.00 0.00 94 1018.8